KC0VVH Weather Reports


time (UTC)temp
C
wind
direction
speed
KPH
gust
KPH
rain 1hr
cm
rain 24hr
cm
rain mn
cm
humidity
%
barometer
mb
20260507223603 23 28 1.6 8.0 0.00 0.00 0.00 18 1017.9
20260507222736 23 33 3.2 12.9 0.00 0.00 0.00 18 1017.9
20260507221815 22 46 0.0 8.0 0.00 0.00 0.00 19 1017.9
20260507220915 23 37 3.2 8.0 0.00 0.00 0.00 17 1017.9
20260507220015 23 45 4.8 14.5 0.00 0.00 0.00 18 1017.9
20260507215424 22 57 4.8 11.3 0.00 0.00 0.00 19 1017.9
20260507214503 22 60 3.2 11.3 0.00 0.00 0.00 19 1017.9
20260507213615 22 31 1.6 9.7 0.00 0.00 0.00 19 1017.9
20260507212715 22 32 4.8 12.9 0.00 0.00 0.00 19 1017.9
20260507211815 22 29 1.6 8.0 0.00 0.00 0.00 20 1017.9
20260507210903 22 9 1.6 12.9 0.00 0.00 0.00 19 1017.9
20260507210015 21 8 3.2 14.5 0.00 0.00 0.00 19 1017.9
20260507205403 21 11 3.2 14.5 0.00 0.00 0.00 19 1017.9
20260507204515 21 42 4.8 12.9 0.00 0.00 0.00 21 1017.9
20260507203603 20 43 3.2 11.3 0.00 0.00 0.00 21 1017.9
20260507202715 20 35 3.2 12.9 0.00 0.00 0.00 21 1017.9
20260507201815 20 82 1.6 12.9 0.00 0.00 0.00 22 1017.9
20260507200915 19 37 1.6 6.4 0.00 0.00 0.00 22 1017.9
20260507200015 20 46 4.8 17.7 0.00 0.00 0.00 21 1017.9
20260507195403 20 42 6.4 17.7 0.00 0.00 0.00 21 1017.9
20260507194503 20 21 1.6 9.7 0.00 0.00 0.00 20 1017.9
20260507193636 20 40 4.8 9.7 0.00 0.00 0.00 21 1017.9
20260507192703 20 29 3.2 11.3 0.00 0.00 0.00 21 1017.9
20260507191815 18 15 3.2 11.3 0.00 0.00 0.00 22 1017.9
20260507190903 18 46 3.2 11.3 0.00 0.00 0.00 22 1017.9
20260507190036 18 50 3.2 12.9 0.00 0.00 0.00 21 1017.9
20260507185403 18 37 3.2 12.9 0.00 0.00 0.00 21 1017.9
20260507184515 18 19 1.6 8.0 0.00 0.00 0.00 22 1017.9
20260507183615 17 13 1.6 12.9 0.00 0.00 0.00 23 1017.9
20260507182703 17 41 1.6 8.0 0.00 0.00 0.00 22 1017.9
20260507181803 17 10 3.2 12.9 0.00 0.00 0.00 22 1017.9
20260507180903 17 12 3.2 12.9 0.00 0.00 0.00 22 1017.9
20260507180015 17 28 3.2 14.5 0.00 0.00 0.00 23 1017.9
20260507175424 17 31 1.6 12.9 0.00 0.00 0.00 22 1017.9
20260507174515 17 44 3.2 14.5 0.00 0.00 0.00 22 1017.9
20260507173615 16 27 1.6 12.9 0.00 0.00 0.00 22 1017.9
20260507172715 16 27 1.6 12.9 0.00 0.00 0.00 23 1017.9
20260507171815 16 328 0.0 8.0 0.00 0.00 0.00 23 1017.9
20260507170915 15 348 1.6 8.0 0.00 0.00 0.00 23 1017.9
20260507170015 14 175 0.0 6.4 0.00 0.00 0.00 26 1017.9
20260507165415 14 104 1.6 8.0 0.00 0.00 0.00 27 1017.9
20260507164503 14 61 0.0 6.4 0.00 0.00 0.00 26 1017.9
20260507163636 14 61 0.0 6.4 0.00 0.00 0.00 29 1017.9
20260507162703 14 56 3.2 12.9 0.00 0.00 0.00 27 1017.9
20260507161803 13 62 1.6 9.7 0.00 0.00 0.00 29 1017.9
20260507160915 13 68 1.6 9.7 0.00 0.00 0.00 30 1017.9
20260507160036 13 37 0.0 11.3 0.00 0.00 0.00 30 1017.9
20260507155415 12 55 1.6 12.9 0.00 0.00 0.00 31 1017.9
20260507154515 12 59 3.2 16.1 0.00 0.00 0.00 32 1017.9
20260507153615 11 151 4.8 19.3 0.00 0.00 0.00 35 1017.9
20260507152736 10 201 8.0 19.3 0.00 0.00 0.00 36 1017.9
20260507151803 10 210 6.4 19.3 0.00 0.00 0.00 38 1017.9
20260507150915 10 207 4.8 17.7 0.00 0.00 0.00 38 1017.9
20260507150015 10 52 1.6 16.1 0.00 0.00 0.00 39 1017.9
20260507145415 10 76 0.0 8.0 0.00 0.00 0.00 39 1017.9
20260507144503 9 149 1.6 12.9 0.00 0.00 0.00 40 1017.9
20260507143615 9 49 0.0 9.7 0.00 0.00 0.00 40 1017.9
20260507142715 8 43 0.0 4.8 0.00 0.00 0.00 42 1017.9
20260507141815 8 43 0.0 4.8 0.00 0.00 0.00 41 1017.9
20260507140936 8 44 0.0 4.8 0.00 0.00 0.00 43 1017.9
20260507140003 7 50 0.0 8.0 0.00 0.00 0.00 44 1017.9
20260507135415 7 58 0.0 8.0 0.00 0.00 0.00 45 1017.9
20260507134524 7 55 1.6 11.3 0.00 0.00 0.00 45 1017.9
20260507133615 7 57 1.6 8.0 0.00 0.00 0.00 45 1017.9
20260507132715 7 63 1.6 6.4 0.00 0.00 0.00 45 1017.9
20260507131815 6 225 0.0 8.0 0.00 0.00 0.00 45 1017.9
20260507130903 6 229 1.6 14.5 0.00 0.00 0.00 44 1017.9
20260507130015 6 212 3.2 11.3 0.00 0.00 0.00 44 1017.9
20260507125403 6 203 3.2 11.3 0.00 0.03 0.00 45 1017.9
20260507124515 5 189 4.8 20.9 0.00 0.03 0.00 47 1017.9
20260507123603 4 194 6.4 12.9 0.00 0.03 0.00 50 1017.9
20260507122715 3 218 4.8 12.9 0.00 0.05 0.00 53 1017.9
20260507121803 3 253 1.6 8.0 0.00 0.10 0.00 55 1017.9
20260507120915 3 255 0.0 8.0 0.00 0.13 0.00 54 1017.9
20260507120015 3 0 0.0 0.0 0.00 0.13 0.00 53 1017.9
20260507115424 3 0 0.0 0.0 0.00 0.15 0.00 52 1017.9
20260507114503 3 0 0.0 0.0 0.00 0.15 0.00 53 1017.9
20260507113615 3 0 0.0 0.0 0.00 0.15 0.00 53 1017.9
20260507112715 3 0 0.0 0.0 0.00 0.15 0.00 52 1017.9
20260507111815 3 256 0.0 1.6 0.00 0.15 0.00 51 1017.9
20260507110936 3 0 0.0 0.0 0.00 0.15 0.00 50 1017.9
20260507110015 3 0 0.0 0.0 0.00 0.15 0.00 50 1017.9
20260507105415 3 0 0.0 0.0 0.00 0.15 0.00 50 1017.9
20260507104515 3 0 0.0 0.0 0.00 0.15 0.00 50 1017.9
20260507103636 3 0 0.0 0.0 0.00 0.15 0.00 49 1017.9
20260507102715 3 0 0.0 0.0 0.00 0.15 0.00 48 1017.9
20260507101815 4 0 0.0 0.0 0.00 0.15 0.00 48 1017.9
20260507100915 4 0 0.0 0.0 0.00 0.15 0.00 48 1017.9
20260507100015 3 0 0.0 0.0 0.00 0.15 0.00 49 1017.9
20260507095424 3 0 0.0 0.0 0.00 0.15 0.00 49 1017.9
20260507094515 3 0 0.0 0.0 0.00 0.15 0.00 48 1017.9
20260507093615 4 0 0.0 0.0 0.00 0.15 0.00 47 1017.9
20260507092703 4 0 0.0 0.0 0.00 0.15 0.00 46 1017.9
20260507091803 5 0 0.0 0.0 0.00 0.15 0.00 44 1017.9
20260507090915 5 0 0.0 0.0 0.00 0.15 0.00 44 1017.9
20260507090015 5 0 0.0 0.0 0.00 0.15 0.00 45 1017.9
20260507085403 5 0 0.0 0.0 0.00 0.15 0.00 45 1017.9
20260507084524 4 0 0.0 0.0 0.00 0.15 0.00 46 1017.9
20260507083615 4 0 0.0 0.0 0.00 0.15 0.00 46 1017.9
20260507082724 5 0 0.0 0.0 0.00 0.15 0.00 46 1017.9
20260507081815 5 0 0.0 0.0 0.00 0.15 0.00 47 1017.9
20260507080915 5 0 0.0 0.0 0.00 0.15 0.00 47 1017.9
20260507080024 4 0 0.0 0.0 0.00 0.15 0.00 48 1017.9
20260507075403 4 0 0.0 0.0 0.00 0.15 0.00 47 1017.9
20260507074515 5 0 0.0 0.0 0.00 0.15 0.00 47 1017.9
20260507073615 5 0 0.0 0.0 0.00 0.15 0.00 45 1017.9
20260507072715 5 0 0.0 0.0 0.00 0.15 0.00 43 1017.9
20260507071815 6 0 0.0 0.0 0.00 0.15 0.00 43 1017.9
20260507070903 6 0 0.0 0.0 0.00 0.15 0.00 40 1017.9
20260507070015 7 0 0.0 0.0 0.00 0.15 0.00 38 1017.9
20260507065415 7 0 0.0 0.0 0.00 0.15 0.00 35 1017.9
20260507064503 8 0 0.0 0.0 0.00 0.15 0.00 33 1017.9
20260507063615 9 0 0.0 0.0 0.00 0.15 0.00 31 1017.9
20260507062715 10 238 0.0 6.4 0.00 0.15 0.00 27 1017.9
20260507061815 10 195 0.0 11.3 0.00 0.15 0.00 27 1017.9
20260507060903 10 188 0.0 6.4 0.00 0.15 0.00 26 1017.9
20260507060015 10 187 0.0 1.6 0.00 0.15 0.00 26 1017.9
20260507055403 10 187 0.0 8.0 0.00 0.15 0.15 26 1017.9
20260507054503 10 188 3.2 9.7 0.00 0.15 0.15 26 1017.9
20260507053615 10 189 3.2 9.7 0.00 0.15 0.15 26 1017.9
20260507052715 10 206 3.2 11.3 0.00 0.15 0.15 27 1017.9
20260507051815 10 214 1.6 11.3 0.00 0.15 0.15 28 1017.9
20260507050915 9 226 0.0 6.4 0.00 0.15 0.15 28 1017.9
20260507050003 8 232 0.0 4.8 0.00 0.15 0.15 31 1017.9
20260507045403 8 0 0.0 0.0 0.00 0.15 0.15 32 1017.9
20260507044503 8 0 0.0 0.0 0.00 0.15 0.15 33 1017.9
20260507043636 8 236 0.0 4.8 0.00 0.15 0.15 33 1017.9
20260507042703 9 0 0.0 0.0 0.00 0.15 0.15 33 1017.9
20260507041815 10 246 0.0 4.8 0.00 0.15 0.15 28 1017.9
20260507040915 10 272 0.0 6.4 0.00 0.15 0.15 26 1017.9
20260507040003 10 0 0.0 0.0 0.00 0.15 0.15 26 1017.9
20260507035415 10 0 0.0 0.0 0.00 0.15 0.15 26 1017.9
20260507034515 10 0 0.0 0.0 0.00 0.15 0.15 27 1017.9
20260507033615 11 0 0.0 0.0 0.00 0.15 0.15 26 1017.9
20260507032715 10 0 0.0 0.0 0.00 0.15 0.15 26 1017.9
20260507031815 10 0 0.0 0.0 0.00 0.15 0.15 26 1017.9
20260507030915 11 0 0.0 0.0 0.00 0.15 0.15 26 1017.9
20260507030015 11 0 0.0 0.0 0.00 0.15 0.15 26 1017.9
20260507025403 11 0 0.0 0.0 0.00 0.15 0.15 26 1017.9
20260507024503 11 0 0.0 0.0 0.00 0.15 0.15 26 1017.9
20260507023615 11 0 0.0 0.0 0.00 0.15 0.15 25 1017.9
20260507022715 11 0 0.0 0.0 0.00 0.15 0.15 25 1017.9
20260507021803 12 0 0.0 0.0 0.00 0.15 0.15 25 1017.9
20260507020903 12 0 0.0 0.0 0.00 0.15 0.15 24 1017.9
20260507020003 12 0 0.0 0.0 0.00 0.15 0.15 23 1017.9
20260507015415 12 0 0.0 0.0 0.00 0.15 0.15 23 1017.9
20260507014503 13 15 0.0 3.2 0.00 0.15 0.15 22 1017.9
20260507013624 13 323 1.6 8.0 0.00 0.15 0.15 22 1017.9
20260507012715 13 301 1.6 6.4 0.00 0.15 0.15 21 1017.9
20260507011815 14 349 0.0 6.4 0.00 0.15 0.15 20 1017.9
20260507010924 14 349 0.0 6.4 0.00 0.15 0.15 20 1017.9
20260507010015 15 350 0.0 4.8 0.00 0.15 0.15 20 1017.9
20260507005415 15 350 0.0 4.8 0.00 0.15 0.15 20 1017.9
20260507004515 15 339 1.6 12.9 0.00 0.15 0.15 18 1017.9
20260507003615 15 332 1.6 9.7 0.00 0.15 0.15 18 1017.9
20260507002736 16 315 0.0 4.8 0.00 0.15 0.15 18 1017.9
20260507001824 16 333 1.6 9.7 0.00 0.15 0.15 18 1017.9
20260507000903 15 283 0.0 9.7 0.00 0.15 0.15 18 1017.9
20260507000015 16 290 0.0 4.8 0.00 0.15 0.15 18 1017.9
20260506235403 15 311 1.6 9.7 0.00 0.15 0.15 18 1017.9
20260506234503 15 248 3.2 17.7 0.00 0.15 0.15 18 1017.9
20260506233636 16 12 3.2 24.1 0.00 0.15 0.15 19 1017.9
20260506232736 16 3 1.6 12.9 0.00 0.15 0.15 19 1017.9
20260506231803 15 239 0.0 4.8 0.00 0.15 0.15 19 1017.9
20260506230915 16 312 1.6 11.3 0.00 0.15 0.15 18 1017.9
20260506230003 15 19 0.0 4.8 0.00 0.15 0.15 21 1017.9
20260506225425 15 20 0.0 4.8 0.00 0.15 0.15 19 1017.9
20260506224515 15 330 3.2 35.4 0.00 0.15 0.15 20 1017.9